AirNav   Pilot Hours Calculator
 
 453 users online  

KOSX Kosciusko-Attala County Airport
Kosciusko, Mississippi, USA

GOING TO KOSCIUSKO?


FAA INFORMATION EFFECTIVE 16 JUNE 2022

Location

FAA Identifier: OSX
Lat/Long: 33-05-24.9000N 089-32-31.3000W
33-05.415000N 089-32.521667W
33.0902500,-89.5420278
(estimated)
Elevation: 494.4 ft. / 150.7 m (surveyed)
Variation: 00W (2005)
From city: 3 miles NE of KOSCIUSKO, MS
Time zone: UTC -5 (UTC -6 during Standard Time)
Zip code: 39090

Airport Operations

Airport use: Open to the public
Activation date: 09/1959
Control tower: no
ARTCC: MEMPHIS CENTER
FSS: GREENWOOD FLIGHT SERVICE STATION
NOTAMs facility: GWO (NOTAM-D service available)
Attendance: UNATNDD
Wind indicator: lighted
Segmented circle: yes
Lights: ACTVT MIRL RWY 14/32 - CTAF. PAPI RWY 14 & 32 OPR CONSLY.
Beacon: white-green (lighted land airport)
Operates sunset to sunrise.

Airport Communications

CTAF: 122.9
  • APCH/DEP SVC PRVDD BY MEMPHIS ARTCC ON FREQS 132.75/350.25 (LOUISVILLE RCAG).

Airport Services

Fuel available: 100LL JET-A
100LL:AVBL H24 SELF SVC VIA CREDIT CARD.
Parking: tiedowns

Runway Information

Runway 14/32

Dimensions: 5009 x 75 ft. / 1527 x 23 m
Surface: asphalt, in good condition
Weight bearing capacity: 
Single wheel: 18.0
Runway edge lights: medium intensity
RUNWAY 14  RUNWAY 32
Latitude: 33-05.719237N33-05.111850N
Longitude: 089-32.853608W089-32.188820W
Elevation: 494.4 ft.469.8 ft.
Traffic pattern: leftleft
Runway heading: 137 magnetic, 137 true317 magnetic, 317 true
Markings: nonprecision, in good conditionnonprecision, in good condition
Visual slope indicator: 2-light PAPI on left (3.50 degrees glide path)2-light PAPI on left (3.50 degrees glide path)
Touchdown point: yes, no lightsyes, no lights
Obstructions: 56 ft. trees, 1680 ft. from runway, 26:1 slope to clear46 ft. trees, 1175 ft. from runway, 40 ft. right of centerline, 21:1 slope to clear

Airport Ownership and Management from official FAA records

Ownership: Publicly-owned
Owner: KOSCIUSKO CITY & ATTALA CO
220 W. WASHINGTON ST.
KOSCIUSKO, MS 39090
Phone 662-289-1226
Manager: RICHIE ARMSTRONG
220 W. WASHINGTON ST.
KOSCIUSKO, MS 39090
Phone 662-289-1226

Airport Operational Statistics

Aircraft based on the field: 10
Single engine airplanes: 8
Multi engine airplanes: 1
Jet airplanes: 1
    
Aircraft operations: avg 60/week *
64% transient general aviation
35% local general aviation
<1% military
* for 12-month period ending 04 March 2022

Additional Remarks

A30A-14 RC MODEL AIRPLANE FLYING OFF RWY END.
WILDLIFE ON & INVOF ARPT.
FOR CD CTC MEMPHIS ARTCC AT 901-368-8453/8449.
COURTESY CAR AVBL.

Instrument Procedures

NOTE: All procedures below are presented as PDF files. If you need a reader for these files, you should download the free Adobe Reader.

NOT FOR NAVIGATION. Please procure official charts for flight.
FAA instrument procedures published for use from 16 June 2022 at 0901Z to 14 July 2022 at 0900z.

 
IAPs - Instrument Approach Procedures
RNAV (GPS) RWY 14   download (204KB)
RNAV (GPS) RWY 32   download (214KB)
NOTE: Special Take-Off Minimums/Departure Procedures apply   download (116KB)

Other nearby airports with instrument procedures:

KLMS - Louisville/Winston County Airport (24 nm E)
5A6 - Winona-Montgomery County Airport (24 nm NW)
19M - C A Moore Airport (24 nm W)
KMPE - Philadelphia Municipal Airport (27 nm SE)
KGWO - Greenwood-Leflore Airport (36 nm NW)
 
Loc | Ops | Rwys | IFR | FBO | Links
Com | Nav | Svcs | Stats | Notes
Area around KOSX (Kosciusko-Attala County Airport)
 
Road maps at: MapQuest Bing Google
 
Aerial photo
WARNING: Photo may not be current or correct
Aerial photo of KOSX (Kosciusko-Attala County Airport)
Do you have a better or more recent aerial photo of Kosciusko-Attala County Airport that you would like to share? If so, please send us your photo.

 
Sectional chart

 
Airport distance calculator
Flying to Kosciusko-Attala County Airport? Find the distance to fly.

From to KOSX

Sunrise and sunset
Times for 25-Jun-2022
 Local
(UTC-5)
 Zulu
(UTC)
Morning civil twilight05:2310:23
Sunrise05:5210:52
Sunset20:1001:10
Evening civil twilight20:3901:39

Current date and time
Zulu (UTC)  25-Jun-2022 10:04:01
Local (UTC-5)  25-Jun-2022 05:04:01
 
METAR
K5A6 
24nm NW 
250955Z AUTO 00000KT 10SM CLR 19/18 A2996 RMK AO2 T01900180
KGWO 
37nm NW 
250953Z AUTO 01003KT 10SM CLR 22/18 A2994 RMK AO2 SLP136 T02170178
KNJW 
40nm SE 
250857Z AUTO 00000KT 10SM CLR 21/18 A2998 RMK AO2 SLP064 T02110178 55000 $
KSTF 
40nm NE 
250955Z AUTO 00000KT 10SM CLR 20/19 A2994 RMK AO2
KMBO 
48nm SW 
250915Z AUTO 00000KT 10SM CLR 22/21 A2993 RMK AO2
TAF
KGWO 
37nm NW 
250521Z 2506/2606 02006KT P6SM FEW060
NOTAMs
Click for the latest NOTAMs
NOTAMs are issued by the DoD/FAA and will open in a separate window not controlled by AirNav.

 

 
 

FBO, Fuel Providers, and Aircraft Ground Support

  
 Business Name 
 
 Contact 
 
 Services / Description 
 
Fuel Prices
 
Comments
  
City of Kosciusko 662-289-1226
no information available

If you are affiliated with City of Kosciusko and would like to show here your services, contact info, web link, logo, and more, click here
100LL Jet A
SS $4.99 $4.25 
 Updated 21-Apr-2022
 
   write
SS=Self service
Update Fuel Prices
 

Would you like to see your business listed on this page?

 If your business provides an interesting product or service to pilots, flight crews, aircraft, or users of the Kosciusko-Attala County Airport, you should consider listing it here.  To start the listing process, click on the button below
 
Add a business
 

Other Pages about Kosciusko-Attala County Airport

Update a link
 
Copyright © AirNav, LLC. All rights reserved. Privacy Policy  Contact